Home > Weather > New Westminster > Past weeks

Flag for Canada Past Weather in New Westminster, British Columbia, Canada — Yesterday and Last 2 Weeks

Now
60 °F

Cool.


Feels Like: 60 °F
Forecast: 52 / 71 °F
Wind: 2 mph from East

Location: P. Meadows Coastal Station

Current Time: Jul 31, 2016 at 2:54:16 AM

Latest Report: Jul 31, 2016 at 2:00 AM


Visibility: N/A

Pressure: 29.93 "Hg

Humidity: 81%

Dew Point: 54 °F

Location of New WestminsterLocation

Past Weather in New Westminster — Graph

°F

New Westminster Temperature Yesterday

Maximum temperature yesterday: 76 °F (at 4:00 PM)
Minimum temperature yesterday: 58 °F (at 6:00 AM)
Average temperature yesterday: 66 °F

High & Low Weather Summary for the Past Weeks

 TemperatureHumidityPressure
High85 °F (Jul 28, 5:00 PM)99% (Jul 17, 5:00 AM)30.26 "Hg (Jul 17, 5:00 AM)
Low54 °F (Jul 23, 6:00 AM)37% (Jul 30, 4:00 PM)29.86 "Hg (Jul 30, 12:00 AM)
Average68 °F70%30.05 "Hg
* Reported Jul 16 1:00 AM — Jul 31 1:00 AM, New Westminster, Weather by CustomWeather, © 2016

Note: Actual official high and low records may vary slightly from our data, if they occured in-between our weather recording intervals... More about our weather records

Advertising

New Westminster Weather History for the Previous 24 Hours

Scroll right to see more
 ConditionsComfort  
Time TempWeatherWind HumidityBarometerVisibility
1:00 AM
Sun, Jul 31
60 °FCool.1 mph77%29.92 "HgN/A
12:00 AM64 °FMild.1 mph69%29.92 "HgN/A
11:00 PM
Sat, Jul 30
65 °FMild.3 mph65%29.91 "HgN/A
10:00 PM66 °FMild.1 mph64%29.91 "HgN/A
9:00 PM68 °FMild.6 mph58%29.90 "HgN/A
8:00 PM71 °FMild.6 mph47%29.90 "HgN/A
7:00 PM74 °FMild.5 mph46%29.90 "HgN/A
6:00 PM75 °FMild.8 mph45%29.90 "HgN/A
5:00 PM75 °FMild.7 mph42%29.91 "HgN/A
4:00 PM76 °FMild.12 mph37%29.92 "HgN/A
3:00 PM75 °FMild.8 mph41%29.93 "HgN/A
2:00 PM73 °FMild.5 mph49%29.93 "HgN/A
1:00 PM69 °FMild.3 mph58%29.94 "HgN/A
12:00 PM67 °FMild.2 mph63%29.94 "HgN/A
11:00 AM66 °FMild.5 mph64%29.93 "HgN/A
10:00 AM63 °FMild.3 mph69%29.93 "HgN/A
9:00 AM62 °FCool.2 mph75%29.92 "HgN/A
8:00 AM61 °FCool.2 mph81%29.91 "HgN/A
7:00 AM60 °FCool.3 mph83%29.90 "HgN/A
6:00 AM58 °FCool.3 mph89%29.89 "HgN/A
5:00 AM58 °FCool.2 mph87%29.88 "HgN/A
4:00 AM59 °FCool.2 mph86%29.87 "HgN/A
3:00 AM62 °FCool.2 mph73%29.86 "HgN/A
2:00 AM63 °FMild.1 mph76%29.87 "HgN/A
Weather by CustomWeather, © 2016

See weather overviewHow to use our weather pages